CDT,Max TemperatureF,Mean TemperatureF,Min TemperatureF,Max Dew PointF,MeanDew PointF,Min DewpointF,Max Humidity, Mean Humidity, Min Humidity, Max Sea Level PressureIn, Mean Sea Level PressureIn, Min Sea Level PressureIn, Max VisibilityMiles, Mean VisibilityMiles, Min VisibilityMiles, Max Wind SpeedMPH, Mean Wind SpeedMPH, Max Gust SpeedMPH,PrecipitationIn, CloudCover, Events, WindDirDegrees
2012-9-1,83,75,67,72,69,64,93,76,58,29.94,29.89,29.85,10,9,6,25,12,31,0.48,4,Rain,8
2012-9-2,90,75,60,68,65,59,97,72,47,29.96,29.91,29.86,10,10,9,7,2,13,0.00,0,,31
2012-9-3,94,79,64,72,67,62,100,71,41,29.92,29.88,29.82,10,7,0,21,6,26,0.82,1,Fog-Rain-Thunderstorm,131
2012-9-4,93,81,69,74,70,66,90,71,52,29.88,29.82,29.74,10,10,10,12,5,15,0.00,0,Thunderstorm,173
2012-9-5,90,76,62,70,66,57,93,72,50,29.90,29.82,29.74,10,10,9,14,5,20,0.00,0,,326
2012-9-6,89,74,58,68,59,54,86,62,37,30.00,29.90,29.79,10,10,2,13,6,20,0.00,1,,123
2012-9-7,81,67,52,67,62,52,87,74,60,30.07,29.89,29.76,10,10,5,24,9,32,0.14,2,Rain,316
2012-9-8,79,63,46,55,49,43,93,61,28,30.17,30.08,29.98,10,10,10,18,6,24,0.00,0,,307
2012-9-9,77,62,47,50,48,44,93,65,36,30.20,30.14,30.01,10,10,10,13,5,20,0.00,0,,12
2012-9-10,81,63,44,54,49,42,100,68,35,30.17,30.11,29.99,10,8,2,18,7,24,0.00,0,,173
2012-9-11,90,73,55,56,53,49,80,52,24,30.01,29.97,29.91,10,10,10,23,10,30,0.00,0,,180
2012-9-12,87,72,57,61,57,44,73,58,42,30.14,30.00,29.95,10,10,10,23,10,30,T,3,,162
2012-9-13,59,55,50,56,52,48,96,90,83,30.40,30.31,30.15,10,9,4,25,10,30,0.18,6,Rain,25
2012-9-14,72,59,46,54,47,40,100,66,31,30.42,30.37,30.31,10,4,0,10,3,13,0.00,2,Fog,21
2012-9-15,77,60,42,57,49,41,96,69,41,30.31,30.22,30.11,10,10,2,15,6,26,0.00,2,,122
2012-9-16,74,62,50,61,56,48,96,80,64,30.11,30.05,29.95,10,7,0,9,3,13,0.00,4,Fog,165
2012-9-17,77,60,42,63,54,42,100,80,60,30.03,29.94,29.88,10,4,0,24,6,31,0.00,5,Fog,355
2012-9-18,70,54,38,45,40,33,100,63,26,30.14,30.06,30.02,10,7,0,13,4,17,0.00,0,Fog,353
2012-9-19,86,69,51,54,47,42,71,50,29,30.00,29.91,29.80,10,10,10,23,12,26,0.00,1,,204
2012-9-20,77,59,40,53,41,32,89,55,21,30.06,30.01,29.96,10,10,10,15,4,20,0.00,0,,329
2012-9-21,80,62,44,50,42,33,93,56,19,29.95,29.88,29.81,10,10,10,28,8,35,0.00,0,,295
2012-9-22,66,50,34,41,34,27,89,57,24,30.30,30.18,29.94,10,10,8,20,7,25,0.00,0,,355
2012-9-23,72,52,31,39,32,28,92,57,22,30.38,30.30,30.23,10,9,2,8,2,18,0.00,1,,158
2012-9-24,77,58,39,56,46,35,92,65,38,30.23,30.01,29.80,10,10,10,14,5,23,0.00,0,,135
2012-9-25,87,72,56,63,58,54,93,68,42,29.88,29.80,29.75,10,10,10,10,3,25,T,1,Thunderstorm,36
2012-9-26,75,66,57,64,59,44,93,71,48,30.11,29.99,29.84,10,9,5,8,3,10,0.06,5,Rain-Thunderstorm,350
2012-9-27,78,63,47,51,46,43,93,62,31,30.18,30.14,30.10,10,10,10,20,4,66,0.00,1,,40
2012-9-28,77,60,43,52,46,41,93,61,29,30.21,30.16,30.10,10,9,5,10,3,15,0.00,1,,51
2012-9-29,80,59,38,47,40,36,100,61,21,30.19,30.13,30.04,10,7,0,9,1,15,0.00,1,Fog,30
2012-9-30,81,63,44,48,45,42,93,61,28,30.03,29.96,29.88,10,10,10,10,3,13,0.00,0,,327